XML Sitemap

This is a XML Sitemap which is supposed to be processed by search engines which follow the XML Sitemap standard like Ask.com, Bing, Google and Yahoo.
It was generated using the WordPress content management system and the Google Sitemap Generator Plugin by Arne Brachhold.
You can find more information about XML sitemaps on sitemaps.org and Google's list of sitemap programs.

URLPriorityChange frequencyLast modified (GMT)
http://worldsubtitle.info/75164/unforgettable-2016.html20%Monthly2018-11-30 11:41
http://worldsubtitle.info/75165/dilwale-dulhania-le-jayenge-1995.html20%Monthly2018-11-30 11:41
http://worldsubtitle.info/75156/justice-league-vs-teen-titans-2016.html20%Monthly2018-11-30 11:41
http://worldsubtitle.info/52834/happy-valley.html20%Monthly2018-11-30 11:41
http://worldsubtitle.info/75153/sarfarosh-1999.html20%Monthly2018-11-30 11:41
http://worldsubtitle.info/75148/the-death-of-stalinism-in-bohemia-1991.html20%Monthly2018-11-30 11:41
http://worldsubtitle.info/11057/nip-tuck.html20%Monthly2018-11-30 11:41
http://worldsubtitle.info/70643/wabbit-a-looney-tunes-production.html20%Monthly2018-11-30 11:41
http://worldsubtitle.info/71569/attack-on-titan-part-2-2015.html20%Monthly2018-11-30 11:41
http://worldsubtitle.info/75135/evilenko-2004.html20%Monthly2018-11-30 11:41
http://worldsubtitle.info/75132/three-times-2005.html20%Monthly2018-11-30 11:41
http://worldsubtitle.info/75130/estranged-2015.html20%Monthly2018-11-30 11:41
http://worldsubtitle.info/75127/lucky-no-time-for-love-2005.html20%Monthly2018-11-30 11:41
http://worldsubtitle.info/75124/an-american-in-paris-1951.html20%Monthly2018-11-30 11:41
http://worldsubtitle.info/75111/lazer-team-2015.html20%Monthly2018-11-30 11:41
http://worldsubtitle.info/75110/el-crimen-del-padre-amaro-2002.html20%Monthly2018-11-30 11:41
http://worldsubtitle.info/75097/jaanwar-1999.html20%Monthly2018-11-30 11:41
http://worldsubtitle.info/75096/welcome-to-the-sticks-2008.html20%Monthly2018-11-30 11:41
http://worldsubtitle.info/75089/monk-comes-down-the-mountain-2015.html20%Monthly2018-11-30 11:41
http://worldsubtitle.info/75084/hollow-creek-2016.html20%Monthly2018-11-30 11:41
http://worldsubtitle.info/75074/wake-in-fright-1971.html20%Monthly2018-11-30 11:41
http://worldsubtitle.info/72756/jang-young-shil.html20%Monthly2018-11-30 11:41
http://worldsubtitle.info/75065/the-revolution-of-the-seven-madmen-1973.html20%Monthly2018-11-30 11:41
http://worldsubtitle.info/75061/court-2014.html20%Monthly2018-11-30 11:41
http://worldsubtitle.info/75062/black-mask-1996.html20%Monthly2018-11-30 11:41
http://worldsubtitle.info/74056/backtrack-2015.html20%Monthly2018-11-30 11:41
http://worldsubtitle.info/75050/kung-fu-panda-secrets-of-the-scroll-2016.html20%Monthly2018-11-30 11:41
http://worldsubtitle.info/75047/dil-hai-tumhaara-2002.html20%Monthly2018-11-30 11:41
http://worldsubtitle.info/75039/refresh-man.html20%Monthly2018-11-30 11:41
http://worldsubtitle.info/73906/love-cuisine.html20%Monthly2018-11-30 11:41
http://worldsubtitle.info/72473/star-wars-the-force-awakens-2015.html20%Monthly2018-11-30 11:41
http://worldsubtitle.info/75028/dosti-friends-forever-2005.html20%Monthly2018-11-30 11:41
http://worldsubtitle.info/74117/the-night-manager.html20%Monthly2018-11-30 11:41
http://worldsubtitle.info/69887/glamorous-temptation.html20%Monthly2018-11-30 11:41
http://worldsubtitle.info/75014/10endrathukulla-2015.html20%Monthly2018-11-30 11:41
http://worldsubtitle.info/74154/%d8%af%d8%a7%d9%86%d9%84%d9%88%d8%af-%d8%b2%db%8c%d8%b1%d9%86%d9%88%db%8c%d8%b3-%d9%81%d8%a7%d8%b1%d8%b3%db%8c-%d9%81%db%8c%d9%84%d9%85-deadpool-2016.html20%Monthly2018-11-30 11:41
http://worldsubtitle.info/72727/beowulf-return-to-the-shieldlands.html20%Monthly2018-11-30 11:41
http://worldsubtitle.info/75008/immortal-love-1961.html20%Monthly2018-11-30 11:41
http://worldsubtitle.info/75009/7-minutes-2014.html20%Monthly2018-11-30 11:42
http://worldsubtitle.info/74999/hum-aapke-dil-mein-rehte-hain-1999.html20%Monthly2018-11-30 11:42
http://worldsubtitle.info/69857/six-flying-dragons.html20%Monthly2018-11-30 11:42
http://worldsubtitle.info/73467/airlift-2016.html20%Monthly2018-11-30 11:42
http://worldsubtitle.info/74990/coming-home-2014.html20%Monthly2018-11-30 11:42
http://worldsubtitle.info/74991/mood-of-the-day-2016.html20%Monthly2018-11-30 11:42
http://worldsubtitle.info/74974/orange-2010.html20%Monthly2018-11-30 11:42
http://worldsubtitle.info/71323/my-best-ex-boy-friend.html20%Monthly2018-11-30 11:42
http://worldsubtitle.info/74961/kasoor-2001.html20%Monthly2018-11-30 11:42
http://worldsubtitle.info/74959/the-hit-1984.html20%Monthly2018-11-30 11:42
http://worldsubtitle.info/74955/el-cantante-2006.html20%Monthly2018-11-30 11:42
http://worldsubtitle.info/74947/moratoriamu-tamako-2013.html20%Monthly2018-11-30 11:42
http://worldsubtitle.info/70455/the-beauty-inside-2015.html20%Monthly2018-11-30 11:42
http://worldsubtitle.info/74937/wolf-totem-2015.html20%Monthly2018-11-30 11:42
http://worldsubtitle.info/74930/the-program-2015.html20%Monthly2018-11-30 11:42
http://worldsubtitle.info/74933/gadar-ek-prem-katha-2001.html20%Monthly2018-11-30 11:42
http://worldsubtitle.info/74921/berberian-sound-studio-2012.html20%Monthly2018-11-30 11:42
http://worldsubtitle.info/74918/the-lesson-2014.html20%Monthly2018-11-30 11:42
http://worldsubtitle.info/74915/the-zero-years-2005.html20%Monthly2018-11-30 11:42
http://worldsubtitle.info/74912/vedreba-1968.html20%Monthly2018-11-30 11:42
http://worldsubtitle.info/74909/repentance-1984.html20%Monthly2018-11-30 11:42
http://worldsubtitle.info/74906/once-upon-a-time-there-was-a-singing-blackbird-1972.html20%Monthly2018-11-30 11:42
http://worldsubtitle.info/74907/final-cut-ladies-and-gentlemen-2012.html20%Monthly2018-11-30 11:42
http://worldsubtitle.info/74895/the-return-of-don-camillo-1953.html20%Monthly2018-11-30 11:42
http://worldsubtitle.info/74892/rosencrantz-guildenstern-are-dead-1990.html20%Monthly2018-11-30 11:42
http://worldsubtitle.info/74876/thirteen.html20%Monthly2018-11-30 11:42
http://worldsubtitle.info/74673/pride-and-prejudice-and-zombies-2016.html20%Monthly2018-11-30 11:42
http://worldsubtitle.info/74867/lapland-odyssey-2-2015.html20%Monthly2018-11-30 11:42
http://worldsubtitle.info/74864/dr-champ.html20%Monthly2018-11-30 11:42
http://worldsubtitle.info/74859/silent-retreat-2016.html20%Monthly2018-11-30 11:42
http://worldsubtitle.info/74852/the-wind-that-shakes-the-barley-2006.html20%Monthly2018-11-30 11:42
http://worldsubtitle.info/74849/circle-of-atonement-2015.html20%Monthly2018-11-30 11:42
http://worldsubtitle.info/74844/anomalisa-2015.html20%Monthly2018-11-30 11:42
http://worldsubtitle.info/74845/salut-damour-2015.html20%Monthly2018-11-30 11:42
http://worldsubtitle.info/74837/a-good-year-2006.html20%Monthly2018-11-30 11:42
http://worldsubtitle.info/74830/senpai-to-kanojo-2015.html20%Monthly2018-11-30 11:42
http://worldsubtitle.info/74824/the-code-2001.html20%Monthly2018-11-30 11:42
http://worldsubtitle.info/74821/isolation-2005.html20%Monthly2018-11-30 11:42
http://worldsubtitle.info/74143/fathers-and-daughters-2015.html20%Monthly2018-11-30 11:42
http://worldsubtitle.info/74898/milk-2008.html20%Monthly2018-11-30 11:42
http://worldsubtitle.info/74802/i-knew-her-well-1965.html20%Monthly2018-11-30 11:42
http://worldsubtitle.info/73532/terminus-2015.html20%Monthly2018-11-30 11:42
http://worldsubtitle.info/74788/the-peach-thief-1964.html20%Monthly2018-11-30 11:42
http://worldsubtitle.info/74771/donzoko-1957.html20%Monthly2018-11-30 11:42
http://worldsubtitle.info/74768/descendants-2015.html20%Monthly2018-11-30 11:42
http://worldsubtitle.info/73271/madame-antoine.html20%Monthly2018-11-30 11:42
http://worldsubtitle.info/74756/orderers-1974.html20%Monthly2018-11-30 11:42
http://worldsubtitle.info/74757/god-of-love-2010.html20%Monthly2018-11-30 11:42
http://worldsubtitle.info/73388/signal.html20%Monthly2018-11-30 11:42
http://worldsubtitle.info/74748/french-blood-2015.html20%Monthly2018-11-30 11:42
http://worldsubtitle.info/74744/the-wishing-tree-1977.html20%Monthly2018-11-30 11:42
http://worldsubtitle.info/74741/trial-on-the-road-1971.html20%Monthly2018-11-30 11:42
http://worldsubtitle.info/74730/the-advocate-a-missing-body-2015.html20%Monthly2018-11-30 11:42
http://worldsubtitle.info/69711/blake-et-mortimer.html20%Monthly2018-11-30 11:42
http://worldsubtitle.info/74718/bobby-deerfield-1977.html20%Monthly2018-11-30 11:42
http://worldsubtitle.info/74711/old-gringo-1989.html20%Monthly2018-11-30 11:42
http://worldsubtitle.info/74712/barbie-spy-squad-2016.html20%Monthly2018-11-30 11:42
http://worldsubtitle.info/67743/jennys-wedding-2015.html20%Monthly2018-11-30 11:42
http://worldsubtitle.info/74699/gods-of-egypt-2016.html20%Monthly2018-11-30 11:42
http://worldsubtitle.info/74695/the-benefactor-2015.html20%Monthly2018-11-30 11:42
http://worldsubtitle.info/74692/the-legend-of-mordu-2012-2.html20%Monthly2018-11-30 11:42
http://worldsubtitle.info/74688/swiri-1999.html20%Monthly2018-11-30 11:42
http://worldsubtitle.info/74661/point-break-2015.html20%Monthly2018-11-30 11:42
http://worldsubtitle.info/74684/aliens-on-the-moon-the-truth-exposed-2014.html20%Monthly2018-11-30 11:42
http://worldsubtitle.info/74681/lantana-2001.html20%Monthly2018-11-30 11:42
http://worldsubtitle.info/74207/say-that-you-love-me.html20%Monthly2018-11-30 11:42
http://worldsubtitle.info/66318/spud-2-the-madness-continues-2013.html20%Monthly2018-11-30 11:42
http://worldsubtitle.info/74678/kokoda-39th-battalion-2006.html20%Monthly2018-11-30 11:42
http://worldsubtitle.info/74663/mona-lisa-smile-2003.html20%Monthly2018-11-30 11:42
http://worldsubtitle.info/73541/moonwalkers-2015.html20%Monthly2018-11-30 11:42
http://worldsubtitle.info/74656/dance-camp-2016.html20%Monthly2018-11-30 11:42
http://worldsubtitle.info/74647/how-to-steal-a-dog-2014.html20%Monthly2018-11-30 11:42
http://worldsubtitle.info/73281/one-more-happy-ending.html20%Monthly2018-11-30 11:42
http://worldsubtitle.info/74641/daddys-home-2015.html20%Monthly2018-11-30 11:42
http://worldsubtitle.info/72460/dilwale-2015.html20%Monthly2018-11-30 11:42
http://worldsubtitle.info/71180/empire-of-lust-2015.html20%Monthly2018-11-30 11:42
http://worldsubtitle.info/74644/job-lazadasa-1983.html20%Monthly2018-11-30 11:42
http://worldsubtitle.info/74640/the-laundryman-2015.html20%Monthly2018-11-30 11:42
http://worldsubtitle.info/74621/the-88th-annual-academy-awards-2016.html20%Monthly2018-11-30 11:42
http://worldsubtitle.info/74628/the-white-reindeer-1952.html20%Monthly2018-11-30 11:42
http://worldsubtitle.info/74617/insanity-2014.html20%Monthly2018-11-30 11:42
http://worldsubtitle.info/74614/dae-mul.html20%Monthly2018-11-30 11:42
http://worldsubtitle.info/73272/exposed-2016.html20%Monthly2018-11-30 11:42
http://worldsubtitle.info/74610/retribution-2015.html20%Monthly2018-11-30 11:42
http://worldsubtitle.info/74611/fertile-ground-2011.html20%Monthly2018-11-30 11:42
http://worldsubtitle.info/74601/ip-man-3-2015.html20%Monthly2018-11-30 11:42
http://worldsubtitle.info/72077/the-hunger-games-mockingjay-part-2-2015.html20%Monthly2018-11-30 11:42
http://worldsubtitle.info/73716/animals.html20%Monthly2018-11-30 11:42
http://worldsubtitle.info/74596/hallows-eve-2014.html20%Monthly2018-11-30 11:42
http://worldsubtitle.info/74593/grossstadtklein-2013.html20%Monthly2018-11-30 11:42
http://worldsubtitle.info/71938/love-me-if-you-dare.html20%Monthly2018-11-30 11:42
http://worldsubtitle.info/74590/the-midnight-man-2016.html20%Monthly2018-11-30 11:42
http://worldsubtitle.info/74585/capture-the-flag-2015.html20%Monthly2018-11-30 11:42
http://worldsubtitle.info/73007/concussion-2015.html20%Monthly2018-11-30 11:42
http://worldsubtitle.info/74400/a-place-to-call-home.html20%Monthly2018-11-30 11:42
http://worldsubtitle.info/74569/the-kingdom-of-dreams-and-madness-2013.html20%Monthly2018-11-30 11:42
http://worldsubtitle.info/74570/a-second-chance-2015.html20%Monthly2018-11-30 11:42
http://worldsubtitle.info/72982/moorim-school.html20%Monthly2018-11-30 11:42
http://worldsubtitle.info/74558/the-ouija-exorcism-2015.html20%Monthly2018-11-30 11:42
http://worldsubtitle.info/74555/the-black-hole-2015.html20%Monthly2018-11-30 11:42
http://worldsubtitle.info/74552/southbound-2015.html20%Monthly2018-11-30 11:42
http://worldsubtitle.info/74549/don-verdean-2015.html20%Monthly2018-11-30 11:42
http://worldsubtitle.info/74545/sand-castles-2014.html20%Monthly2018-11-30 11:42
http://worldsubtitle.info/74543/ratter-2015.html20%Monthly2018-11-30 11:42
http://worldsubtitle.info/74540/mojave-2015.html20%Monthly2018-11-30 11:42
http://worldsubtitle.info/74536/bad-hurt-2015.html20%Monthly2018-11-30 11:42
http://worldsubtitle.info/74524/free-the-n-i-p-p-l-e-2014.html20%Monthly2018-11-30 11:42
http://worldsubtitle.info/74520/the-lady-in-the-van-2015.html20%Monthly2018-11-30 11:42
http://worldsubtitle.info/69055/7-days-in-hell-2015.html20%Monthly2018-11-30 11:42
http://worldsubtitle.info/74499/the-magdalene-sisters-2002.html20%Monthly2018-11-30 11:42
http://worldsubtitle.info/74494/escape-to-victory-1981.html20%Monthly2018-11-30 11:42
http://worldsubtitle.info/74491/anacondas-the-hunt-for-the-blood-orchid-2004.html20%Monthly2018-11-30 11:42
http://worldsubtitle.info/74487/a-day-in-the-country-1936.html20%Monthly2018-11-30 11:42
http://worldsubtitle.info/74488/hedgehog-in-the-fog-1975.html20%Monthly2018-11-30 11:42
http://worldsubtitle.info/74466/heavenly-sword-and-dragon-sabre.html20%Monthly2018-11-30 11:42
http://worldsubtitle.info/72451/the-hateful-eight-2015.html20%Monthly2018-11-30 11:42
http://worldsubtitle.info/55739/agent-carter.html20%Monthly2018-11-30 11:42
http://worldsubtitle.info/74467/wild-at-heart-1990.html20%Monthly2018-11-30 11:42
http://worldsubtitle.info/71630/jekyll-hyde.html20%Monthly2018-11-30 11:42
http://worldsubtitle.info/74454/riddle-room-2016.html20%Monthly2018-11-30 11:42
http://worldsubtitle.info/55374/transparent.html20%Monthly2018-11-30 11:42
http://worldsubtitle.info/74444/socialphobia-2014.html20%Monthly2018-11-30 11:42
http://worldsubtitle.info/69154/my-daughter-geum-sa-wol.html20%Monthly2018-11-30 11:42
http://worldsubtitle.info/74435/jesse-stone-lost-in-paradise-2015.html20%Monthly2018-11-30 11:42
http://worldsubtitle.info/73370/intruders-2015.html20%Monthly2018-11-30 11:42
http://worldsubtitle.info/16893/fairy-tail.html20%Monthly2018-11-30 11:42
http://worldsubtitle.info/74356/sisters-2015.html20%Monthly2018-11-30 11:42
http://worldsubtitle.info/74423/salvatore-giuliano-1962.html20%Monthly2018-11-30 11:42
http://worldsubtitle.info/66816/spaced.html20%Monthly2018-11-30 11:42
http://worldsubtitle.info/72832/cheese-in-the-trap.html20%Monthly2018-11-30 11:42
http://worldsubtitle.info/74396/tell-spring-not-to-come-this-year-2015.html20%Monthly2018-11-30 11:42
http://worldsubtitle.info/74392/four-nights-with-anna-2008.html20%Monthly2018-11-30 11:42
http://worldsubtitle.info/74393/the-tunnel-2014.html20%Monthly2018-11-30 11:42
http://worldsubtitle.info/70869/the-hallow-2015.html20%Monthly2018-11-30 11:42
http://worldsubtitle.info/74376/alvin-and-the-chipmunks-the-road-chip-2015.html20%Monthly2018-11-30 11:42
http://worldsubtitle.info/74378/much-ado-about-nothing-2012.html20%Monthly2018-11-30 11:42
http://worldsubtitle.info/74360/sanjays-super-team-2015.html20%Monthly2018-11-30 11:42
http://worldsubtitle.info/74348/the-perfect-husband-2014.html20%Monthly2018-11-30 11:42
http://worldsubtitle.info/73192/the-big-short-2015.html20%Monthly2018-11-30 11:42
http://worldsubtitle.info/74343/lego-dc-comics-super-heroes-justice-league-cosmic-clash-2016.html20%Monthly2018-11-30 11:42
http://worldsubtitle.info/74330/the-ascent-1977.html20%Monthly2018-11-30 11:42
http://worldsubtitle.info/74323/bandits-2001.html20%Monthly2018-11-30 11:42
http://worldsubtitle.info/74316/elevator-to-the-gallows-1958.html20%Monthly2018-11-30 11:42
http://worldsubtitle.info/68689/i-have-a-lover.html20%Monthly2018-11-30 11:42